Regional Weather Roundup
Issued by NWS

Home | Current Version | Previous Version | Graphics & Text | Print | Product List | Glossary On
Versions: 1 2 3 4 5 6 7 8 9 10 11 12 13 14 15 16 17 18 19 20 21 22 23 24 25 26 27 28 29 30 31 32 33 34 35 36 37 38 39 40 41 42 43 44 45 46 47 48 49 50
000
ASUS45 KCYS 041510
RWRWY

WYOMING REGIONAL WEATHER ROUNDUP
NATIONAL WEATHER SERVICE CHEYENNE WY
900 AM MDT SAT JUL 04 2015

NOTE:  "FAIR" INDICATES FEW OR NO CLOUDS BELOW 12,000 FEET
WITH NO SIGNIFICANT WEATHER AND/OR OBSTRUCTIONS TO VISIBILITY.

WYZ001-041600-
YELLOWSTONE NATIONAL PARK

CITY           SKY/WX    TMP DP  RH WIND       PRES   REMARKS
LK YELLOWSTONE   N/A     61  50  67 CALM      30.23S
W YELLOWSTONE  NOT AVBL

$$
WYZ002>013-054>058-071-098>099-041600-
NORTHERN WYOMING

CITY           SKY/WX    TMP DP  RH WIND       PRES   REMARKS
JACKSON        FAIR      64  48  55 CALM      30.13S
CODY           FAIR      77  50  38 CALM      29.98F
GREYBULL       FAIR      77  51  40 VRB3      29.91S
WORLAND        FAIR      73  59  61 W3        29.93R
SHERIDAN       FAIR      76  57  51 CALM      29.89S
BUFFALO        FAIR      80  58  46 N5        29.97R
GILLETTE       FAIR      78  59  51 S3        29.92S
HULETT         FAIR      77  59  53 SW9       29.93S
NEWCASTLE      FAIR      73  54  49 MISG      29.94S

$$
WYZ014>020-022>026-101>103-041600-
CENTRAL WYOMING

CITY           SKY/WX    TMP DP  RH WIND       PRES   REMARKS
BIG PINEY      FAIR      70  48  45 SW3       30.17S
PINEDALE       FAIR      68  43  40 CALM      30.18S
DUBOIS         FAIR      66  41  39 NW5       30.15F
LANDER         FAIR      73  55  53 CALM      30.03R
RIVERTON       FAIR      74  53  48 N6        30.03R
CASPER         FAIR      78  52  40 SW9       30.01R
DOUGLAS        FAIR      72  54  53 W3        29.99R

$$
WYZ021-027>030-104>119-041600-
SOUTHERN WYOMING

CITY           SKY/WX    TMP DP  RH WIND       PRES   REMARKS
EVANSTON       PTSUNNY   65  46  50 S3        30.19S
KEMMERER       FAIR      73  45  35 CALM      30.20S
FORT BRIDGER   PTSUNNY   73  45  35 W5        30.21R
ROCK SPRINGS   FAIR      75  45  34 SW9       30.15R
DIXON          FAIR      69  44  41 CALM      30.19S
RAWLINS        FAIR      72  46  39 W10       30.15R
SARATOGA       FAIR      70  45  40 S5        30.18S
LARAMIE        FAIR      72  45  37 VRB3      30.16S
CHEYENNE       FAIR      76  56  49 S6        30.06S
TORRINGTON     FAIR      74  61  63 SE8       29.93F
PINE BLUFFS    FAIR      72  59  64 S3        30.01S

$$


USA.gov is the U.S. government's official web portal to all federal, state and local government web resources and services.